SKYNET 5C

Last updated on Sun Dec 21 2025 00:02:53 GMT+0000 (Coordinated Universal Time)

1 33055U 08030A 25354.33378015 -.00000119 00000+0 00000+0 0 9996 2 33055 3.3302 79.1851 0003920 200.3294 271.9935 1.00271827 64165
UTC large
Height (km)
Speed (km/s)
/
Latitude / Longitude
Inclination (degrees)
Orbital Period (minutes)
Azimuth
Elevation
Range (km)
Doppler Factor

Next 0 passes for location: London (51.5072 / 0.1276)

Sorry there are no passes over London.